Hlavní strana
METAR-TAF:

METAR-TAF

Letiště :

Brookings, Jižní Dakota, Spojené státy americké

zeměpisná šířka: 44-18N, zeměpisná délka: 096-49W, výška: 502 m

Aktuální stav počasí

Zpráva byla vytvořena před 27 minutami, v 22:56 UTC
Jižní vítr 14 kt
Teplota 4°C
Vlhkost vzduchu 60%
Tlak 1013 hPa
Viditelnost: 16.1 km
Jasno

METAR: KBKX 152256Z AUTO 19014KT 10SM CLR 04/M03 A2990 RMK AO2 SLP157 T00441028

Čas: 17:23 (23:23 UTC)


TAF: chybějící

Stav a předpovědi počasí z více než 4 000 letišť (zprávy METAR a TAF).

Červené a žluté tečky na mapě představují dostupné meteorologické stanice.

Když kurzor umístíte na tečku, zobrazí se název stanice.

Pak kliknutím zobrazíte stav a předpověď počasí.

Chcete-li změnit mapu, kliknutím na zelené tlačítko se znaménkem +mapu přiblížíte, kliknutím na zelené tlačítko se znaménkem – mapu oddálíte a kliknutím na zelené šipky přejdete na sousední mapy.


METAR-TAF: